Location: Unspecified
(43.4680°N, 87.1740°E)
Time: 08:16:45
(UTC+00:00)

NOSS 0 Rocket - Pass Details

Date: 31 July 2021
Orbit: 936 x 954 km, 70.0° (Epoch: 18 September)

Event Time Altitude Azimuth Distance (km) Brightness Sun altitude
Rises 14:54:40 0° 342° (NNW) 3,639 8.1 -12.9°
Reaches altitude 10° 15:00:24 10° 24° (NNE) 2,686 6.5 -13.6°
Maximum altitude 15:01:14 10° 32° (NNE) 2,666 6.4 -13.8°
Drops below altitude 10° 15:02:04 10° 39° (NE) 2,683 6.3 -13.9°
Enters shadow 15:07:21 - 79° (E) 3,521 6.6 -14.6°
